Preview of NWS' New Version of Forecast
This preview is not operational and should not be used for support decisions.

Regional Weather Roundup (RWR)

Issued by National Weather Service (NWS)

                            
000
ASUS42 KTBW 190216
RWRFL 
FLORIDA REGIONAL WEATHER ROUNDUP
NATIONAL WEATHER SERVICE TAMPA BAY RUSKIN FL
1000 PM EDT SAT MAY 18 2019

NOTE: "FAIR" INDICATES FEW OR NO CLOUDS BELOW 12,000 FEET WITH NO
SIGNIFICANT WEATHER AND/OR OBSTRUCTIONS TO VISIBILITY.

FLZ001>010-012>015-112-114-115-190300-
PANHANDLE FLORIDA
  
CITY           SKY/WX    TMP DP  RH WIND       PRES   REMARKS
PENSACOLA      FAIR      77  72  84 S8        29.95S                  
PENSACOLA NAS  FAIR      77  73  87 SE12      29.95S                  
MILTON NAS     FAIR      71  67  87 SE6       29.96S                  
CRESTVIEW      FAIR      73  66  78 CALM      29.99R                  
DUKE FIELD     FAIR      72  68  87 CALM      29.97S                  
VALPARAISO     FAIR      76  71  84 SW3       29.96S                  
MARY ESTHER    CLEAR     76  71  84 S7        29.96R                  
PANAMA CITY    FAIR      73  69  87 S3        29.97S                  
TYNDALL AFB    FAIR      75  70  83 S6        29.97S                  
APALACHICOLA   FAIR      75  67  76 SW6       29.99R                  

STATION/POSITION SKY/WX   TEMP    WIND        PRES    WAVE   SWELL
                          AIR SEA DIR/SP/G            HT/PER HT/PER
                          (F)     (DEG/KT/KT) (MB)    (FT/S) (FT/S)
30.1N   87.6W                                   N/A     3/ 6
29.2N   88.2W                     130/ 12/ 16 1013.9R   4/ 5   2/ 7
PANAMA CITY BEAC           77 82  190/  6/  8 1015.4R
TOWER C          NOT AVBL

$$
FLZ011-016>038-118-127-128-134-139-239-190300-
NORTH FLORIDA
  
CITY           SKY/WX    TMP DP  RH WIND       PRES   REMARKS
MARIANNA       FAIR      79  62  56 SW6       29.97R                  
TALLAHASSEE    MOCLDY    80  66  62 CALM      29.98R                  
PERRY          MOCLDY    73  72  97 CALM      30.00R                  
LIVE OAK       PTCLDY    77  66  69 CALM      30.00R                  
CROSS CITY     FAIR      73  71  91 CALM      30.00R                  
GAINESVILLE    FAIR      77  60  55 E6        30.04R                  
WILLISTON      FAIR      76  59  56 CALM      30.01R                  
PALATKA        FAIR     N/A N/A N/A SE7       30.02R                  
MAYPORT NAS    FAIR      77  66  68 SE10      30.02R                  
JACKSONVILLE   FAIR      74  62  66 SE7       30.02R                  
JAX NAS        FAIR      78  64  61 SE9       30.03R                  
JAX CECIL      NOT AVBL                                               
FERNANDINA BEA FAIR      76  67  74 SE12      30.03R                  
PALM COAST     FAIR      70  62  76 CALM      30.03R                  

STATION/POSITION SKY/WX   TEMP    WIND        PRES    WAVE   SWELL
                          AIR SEA DIR/SP/G            HT/PER HT/PER
                          (F)     (DEG/KT/KT) (MB)    (FT/S) (FT/S)
SHELL POINT      NOT AVBL
KEATON BEACH               80     230/  6/  7 1015.9R
CEDAR KEY                  78      40/  4/  4 1015.9R
FERNANDINA                 79 80  140/  5/  7 1017.4R
30.7N   81.3W                 78                N/A     2/ 4   2/13
MAYPORT                    76 79  150/  3/  9 1016.9R
31.4N   80.9W              76 76  170/ 14/ 16 1016.5R   3/ 4   2/15
ST AUGUSTINE               78 81  140/ 14/ 16 1016.4R

$$
FLZ040-043>046-052-053-057-058-063-144-190300-
INTERIOR CENTRAL FLORIDA
  
CITY           SKY/WX    TMP DP  RH WIND       PRES   REMARKS
OCALA          FAIR      76  56  49 E5        30.02R                  
LEESBURG       FAIR      75  59  57 E12       30.01S                  
SANFORD        FAIR      72  64  76 E8        30.03R                  
ORLANDO EXEC   FAIR      73  61  65 E9        30.03R                  
ORLANDO INTL   FAIR      74  63  68 E8        30.03R                  
KISSIMMEE      FAIR      75  64  68 SE8       30.04R                  
WINTER HAVEN   FAIR      76  62  62 E13       30.03R                  
LAKELAND       CLEAR     75  63  64 E10       30.02R                  
BARTOW         FAIR      75  61  60 E9        30.02R                  
SEBRING        FAIR      73  64  73 E5        30.04R                  
OKEECHOBEE     FAIR      70  64  83 E3        30.03R                  

$$
FLZ041-047-054-059-064-141-147-190300-
EAST CENTRAL FLORIDA
  
CITY           SKY/WX    TMP DP  RH WIND       PRES   REMARKS
DAYTONA BEACH  FAIR      73  65  75 SE3       30.02S                  
DELAND         FAIR      72  63  73 SE9       30.02S                  
NEW SMYRNA BEA CLEAR     72  63  73 SE7       30.04R                  
JFK SPACE CTR  FAIR      67  62  86 SE3       30.03R                  
CAPE CANAVERAL FAIR      71  60  69 SE3       30.02R                  
PATRICK AFB    FAIR      77  67  72 E7        30.03R                  
MELBOURNE      FAIR      78  65  63 E8        30.03R                  
VERO BEACH     FAIR      75  65  70 E6        30.03R                  
FT PIERCE      FAIR      75  65  70 E7        30.03R                  
STUART         FAIR      77  64  65 E7        30.04R                  

STATION/POSITION SKY/WX   TEMP    WIND        PRES    WAVE   SWELL
                          AIR SEA DIR/SP/G            HT/PER HT/PER
                          (F)     (DEG/KT/KT) (MB)    (FT/S) (FT/S)
28.5N   80.2W              78     120/  8/ 10 1017.3
28.9N   78.5W              78 78  120/ 16/ 19 1017.7R   4/ 6   2/14
TRIDENT PIER               75 81  100/  5/  8 1018.2R
28.4N   80.5W                 79                N/A     2/14   2/14
27.5N   80.2W                 79                N/A     2/14   2/14

$$
FLZ050-056-061-142-242-148-248-149-249-151-251-155-255-
160-260-190300-
WEST CENTRAL FLORIDA
  
CITY           SKY/WX    TMP DP  RH WIND       PRES   REMARKS
CRYSTAL RIVER  FAIR      72  61  68 CALM      30.00R                  
INVERNESS      FAIR      73  59  60 CALM      30.01R                  
BROOKSVILLE    FAIR      74  55  51 E6        30.01R                  
CLEARWATER AIR FAIR      79  59  50 NE3       29.99R                  
ST PETE CLEARW FAIR      79  63  57 SE6       29.99R                  
TAMPA INTL     FAIR      83  54  36 E5        30.00R                  
TAMPA EXEC     FAIR      72  57  60 E3        30.01R                  
PLANT CITY     FAIR      77  57  50 E6        30.03R                  
MACDILL AFB    FAIR      80  57  45 E9        29.99R                  
PETER O KNIGHT CLOUDY    79  59  50 E6        30.00R                  
ST PETERSBURG    N/A    N/A N/A N/A E15       29.98R                  
SARASOTA       FAIR      79  57  46 E6        29.97R                  
VENICE         FAIR      77  70  78 NE3       29.99R                  

STATION/POSITION SKY/WX   TEMP    WIND        PRES    WAVE   SWELL
                          AIR SEA DIR/SP/G            HT/PER HT/PER
                          (F)     (DEG/KT/KT) (MB)    (FT/S) (FT/S)
27.3N   84.2W                 78                N/A     2/ 5
CLEARWATER BEACH           81 85   20/  5/  7 1015.5R
MIDDLE TAMPA BAY           81     100/  8/ 10 1015.5R
VENICE                     81 81   60/  3/  4 1015.3R

$$
FLZ066-069-070-075>078-162-262-165-265-190300-
SOUTHWEST FLORIDA AND KEYS
  
CITY           SKY/WX    TMP DP  RH WIND       PRES   REMARKS
PUNTA GORDA    FAIR      77  66  68 E12       30.01R                  
FT MYERS       FAIR      79  69  71 SE15      29.99R                  
SOUTHWEST INTL FAIR      79  67  66 SE12      30.00R                  
NAPLES         FAIR      74  67  78 SE8       29.99S                  
MARCO ISLAND   FAIR      74  64  71 E8        30.01R                  
IMMOKALEE      MOCLDY    75  68  78 SE8       29.99R                  
MARATHON       FAIR      83  71  67 E9        29.98R                  
KEY WEST NAS   FAIR      83  71  67 E14       29.98R                  
KEY WEST INTL  FAIR      81  73  76 E13       29.99R                  

STATION/POSITION SKY/WX   TEMP    WIND        PRES    WAVE   SWELL
                          AIR SEA DIR/SP/G            HT/PER HT/PER
                          (F)     (DEG/KT/KT) (MB)    (FT/S) (FT/S)
NAPLES                     77 84              1015.8R
DRY TORTUGAS               81      90/  6/  8 1014.9R
SAND KEY                   81                 1015.1R
SOMBRERO KEY               81                 1014.6R

$$
FLZ067-068-071>074-168-172>174-190300-
SOUTHEAST FLORIDA 
  
CITY           SKY/WX    TMP DP  RH WIND       PRES   REMARKS
W PALM BEACH   FAIR      79  67  66 E12       30.02R                  
BOCA RATON     PTCLDY    79  70  73 E12       30.01R                  
FT LAUDER-EXEC FAIR      79  68  69 E13       30.00R                  
FT LAUDERDALE  FAIR      79  69  71 E10       30.00R                  
POMPANO BEACH  FAIR      80  69  69 E9        30.01R                  
PEMBROKE PINES FAIR      78  69  73 E9        30.02R                  
OPA LOCKA      FAIR      80  69  69 E10       30.00R                  
MIAMI          CLOUDY    81  69  67 E14       30.00R                  
WEST KENDALL   FAIR      80  70  71 E10       29.99R                  
HOMESTEAD      FAIR      80  72  75 E7        29.98S                  

STATION/POSITION SKY/WX   TEMP    WIND        PRES    WAVE   SWELL
                          AIR SEA DIR/SP/G            HT/PER HT/PER
                          (F)     (DEG/KT/KT) (MB)    (FT/S) (FT/S)
PORT EVERGLADES            80      70/ 10/ 15 1015.4
VIRGINIA KEY               81 83   70/  9/ 13 1015.3R
LAKE WORTH                 78 82              1017.3S

$$